Wind_Speed
6 6 5 6 6 7 8 9 9 10 10 10 11 11 11 12 12 13 14 14 15 15 17 18 18 18 19 20 20 21 22 22 23 23 23 23 24 25
7 7 7 8 8 8 8 9 9 9 10 10 11 11 11 12 12 13 13 14 15 16 17 18 19 20 21 21 21 22 23 24 24 24 25 25 26 27
8 8 8 8 8 9 9 9 10 10 10 10 11 12 12 13 13 14 15 15 16 17 18 19 20 21 22 23 24 24 25 25 25 26 26 27 27 28
9 9 9 9 10 10 10 10 10 11 11 12 13 13 14 15 15 16 17 17 18 19 20 21 22 23 23 24 25 25 26 26 26 27 27 28 28 29
9 9 10 11 11 11 11 11 11 12 12 13 14 14 15 16 17 17 18 19 21 22 22 22 23 24 25 25 26 26 26 27 28 28 28 29 29 30
11 11 11 11 11 11 11 12 12 13 14 14 15 16 17 17 18 19 20 21 22 23 23 24 24 25 25 26 26 27 27 27 28 29 29 30 30 31
11 11 11 12 11 12 12 13 14 14 15 16 17 18 18 19 19 20 21 22 23 24 24 24 25 25 26 26 27 27 28 28 29 29 30 30 30 31
11 11 12 12 12 13 13 14 15 16 16 17 18 19 19 19 20 21 21 22 23 24 24 24 25 25 26 26 27 28 28 29 29 29 30 30 31 31
12 12 12 13 14 14 15 15 16 17 18 19 19 19 19 20 21 22 23 24 24 24 25 25 26 26 26 27 28 28 28 29 30 30 30 31 31 32
14 14 14 14 15 15 16 17 18 18 19 20 20 20 21 22 23 24 24 25 26 26 27 26 26 27 27 28 28 29 29 29 29 30 30 31 32 32
15 16 16 16 17 17 18 18 19 20 20 21 21 22 23 24 25 25 26 26 26 27 27 27 27 27 28 28 29 29 29 29 29 30 31 31 31 32
17 17 18 19 19 20 20 20 21 21 22 22 23 23 24 25 26 27 27 27 28 28 28 28 28 28 28 29 29 30 30 30 30 31 31 32 32 32
19 19 20 21 22 22 22 22 23 23 24 24 25 25 26 27 28 28 29 29 29 29 29 29 29 30 30 29 30 31 31 32 32 32 32 33 33 33
20 21 21 22 23 23 24 24 25 25 26 26 27 27 28 28 29 30 30 30 30 30 31 31 31 31 31 31 31 32 32 33 33 33 34 34 34 34
22 22 23 23 24 25 25 26 26 27 27 28 28 29 29 29 30 30 30 30 30 31 32 33 33 33 33 33 33 33 33 33 34 34 34 34 34 34
23 23 24 25 25 26 26 27 28 29 29 29 29 29 29 29 30 30 31 31 31 32 33 33 34 34 34 34 35 34 34 35 35 35 35 36 36 35
26 26 26 27 27 28 28 28 29 29 30 29 30 30 30 31 31 32 32 33 33 33 33 34 34 34 35 35 35 35 35 36 36 36 36 36 36 36
28 28 28 29 29 29 29 30 30 30 31 31 31 31 31 32 33 33 33 34 34 35 34 34 34 34 34 35 36 36 37 37 37 37 37 37 36 36
30 31 31 32 31 31 30 31 31 32 31 32 32 32 33 33 34 34 35 36 36 35 35 35 35 35 35 35 35 36 36 36 37 37 37 37 36 36
32 33 33 32 32 32 32 32 32 32 32 33 33 33 34 35 35 36 36 37 37 36 36 36 36 36 36 36 35 35 36 37 36 36 36 36 36 36
34 34 34 34 33 33 33 33 33 34 34 35 35 35 36 37 37 37 37 37 37 37 37 37 37 37 37 37 36 36 36 36 36 36 36 36 35 35
35 35 35 35 35 35 35 35 35 36 36 36 36 37 37 38 38 38 38 38 38 38 37 37 38 37 37 36 36 37 37 37 37 36 37 37 35 34
36 36 36 36 36 36 37 37 37 37 37 38 38 38 38 38 38 38 38 38 38 37 37 37 37 37 37 37 37 37 37 37 37 37 36 36 35 34
Wind_Direction
293 283 287 290 289 289 288 289 289 286 284 282 282 285 285 285 287 289 290 291 292 292 293 292 292 291 291 291 291 291 291 290 290 289 288 288 288 288
294 292 295 296 296 292 289 289 290 292 291 287 285 288 289 290 291 291 290 292 293 295 296 296 295 294 293 292 290 292 292 291 291 290 290 290 290 291
292 290 293 296 296 296 293 288 286 290 291 288 288 291 293 292 292 293 295 297 297 296 295 295 296 295 294 292 292 292 292 291 291 291 291 291 292 291
290 289 288 293 294 292 292 289 287 289 290 288 290 293 294 294 294 294 296 296 296 297 298 298 298 297 296 294 292 292 292 293 293 292 293 293 293 292
291 291 292 295 296 291 291 289 289 289 292 294 294 295 296 296 297 297 298 298 298 299 299 299 300 299 298 296 294 292 292 293 293 293 293 294 294 294
293 294 295 295 295 295 295 295 294 294 294 295 296 297 298 299 298 298 299 301 303 303 302 301 301 300 298 295 293 293 293 293 293 294 295 295 295 295
293 292 293 294 294 295 296 296 297 297 298 299 299 300 300 300 301 301 302 303 304 305 305 305 304 302 300 297 295 294 294 294 294 294 295 296 297 296
292 291 292 296 295 294 296 297 298 299 299 299 300 300 301 301 302 303 303 303 304 304 304 304 305 305 304 301 299 297 296 295 294 295 296 297 297 296
290 292 295 296 296 295 295 295 298 300 299 299 301 301 301 301 303 304 303 304 304 304 303 304 304 304 305 304 303 301 299 297 296 296 296 298 298 298
286 288 291 294 296 298 299 299 299 299 299 300 302 301 302 303 303 304 304 304 304 304 304 304 303 304 305 306 304 302 301 300 299 298 297 297 298 298
283 284 287 291 294 295 298 299 300 300 301 301 302 302 302 303 304 304 305 305 305 305 304 304 303 303 304 305 304 303 302 301 300 299 298 299 299 299
282 284 286 289 291 292 295 296 297 299 301 301 301 301 301 302 303 304 304 304 304 304 304 303 303 303 303 304 303 303 303 303 302 301 300 299 299 299
282 285 287 289 290 291 293 295 296 296 298 299 300 300 301 302 303 303 303 303 303 304 304 304 304 304 304 303 303 303 303 303 303 303 302 301 299 298
285 286 287 288 289 290 292 294 295 295 296 298 298 298 299 300 301 303 303 303 303 304 304 305 305 304 303 302 302 302 302 303 303 303 303 302 300 299
285 286 287 288 289 291 292 294 295 296 296 297 298 299 299 299 300 302 303 303 303 304 304 304 304 304 304 303 303 303 303 303 302 302 302 302 301 299
285 286 287 289 291 291 292 293 296 297 298 298 298 299 300 300 301 302 303 303 303 303 304 304 303 303 304 304 304 303 303 303 302 302 302 302 301 299
284 285 286 288 289 289 289 291 294 296 297 297 297 298 299 300 301 301 302 302 303 303 304 303 303 303 303 303 303 303 303 303 303 302 302 302 301 300
284 285 284 287 287 287 289 290 292 295 297 297 296 296 298 299 300 301 301 301 302 303 303 303 303 303 303 304 304 304 304 304 304 303 302 302 301 301
283 284 285 286 286 288 290 291 292 294 295 296 296 297 297 299 300 300 300 300 302 302 303 303 302 303 303 303 303 304 304 305 305 305 304 302 302 301
284 285 287 287 286 287 289 290 292 293 294 295 295 296 297 298 299 299 299 300 300 301 301 301 301 301 302 302 303 304 305 305 305 306 306 304 303 302
284 286 287 287 287 287 288 289 291 292 293 294 294 295 296 297 298 298 299 299 300 300 300 301 301 301 301 301 301 302 303 304 304 304 305 305 305 304
284 285 286 286 287 287 288 289 290 291 292 294 294 294 295 296 297 297 297 298 299 300 299 300 301 301 301 301 301 302 303 304 304 305 306 306 305 304
284 284 284 285 286 287 287 288 289 290 291 293 294 294 295 296 297 297 297 298 299 299 299 300 300 300 300 300 301 302 303 303 304 305 306 306 305 304
Height
5825 5825 5825 5824 5824 5824 5824 5824 5824 5823 5822 5822 5821 5821 5820 5820 5819 5819 5818 5817 5815 5814 5813 5812 5811 5809 5808 5807 5805 5804 5802 5801 5799 5798 5796 5795 5793 5792
5824 5823 5823 5823 5822 5822 5822 5821 5821 5821 5820 5819 5818 5818 5817 5817 5816 5815 5814 5813 5812 5810 5809 5807 5806 5804 5803 5801 5800 5798 5796 5795 5793 5791 5790 5788 5786 5785
5822 5822 5822 5821 5820 5820 5819 5819 5818 5818 5817 5817 5816 5815 5814 5813 5813 5812 5810 5809 5807 5806 5804 5803 5801 5799 5797 5795 5794 5792 5790 5788 5786 5785 5783 5781 5779 5777
5821 5820 5820 5819 5818 5817 5817 5816 5816 5815 5814 5814 5813 5812 5811 5810 5809 5807 5806 5804 5803 5801 5799 5797 5795 5793 5791 5789 5787 5785 5783 5781 5779 5777 5776 5774 5771 5769
5818 5818 5817 5817 5816 5815 5814 5814 5813 5812 5811 5810 5809 5808 5807 5806 5804 5803 5801 5799 5797 5795 5793 5791 5788 5786 5784 5782 5779 5777 5775 5774 5772 5770 5768 5765 5763 5761
5816 5815 5815 5814 5813 5813 5812 5811 5810 5809 5808 5807 5805 5804 5803 5801 5799 5798 5796 5794 5792 5789 5786 5784 5781 5779 5776 5774 5771 5769 5767 5765 5763 5761 5759 5757 5755 5752
5813 5813 5812 5811 5810 5810 5809 5808 5806 5805 5804 5803 5801 5800 5798 5796 5794 5792 5790 5788 5785 5783 5780 5777 5774 5772 5769 5766 5763 5761 5759 5757 5755 5752 5750 5748 5745 5743
5811 5810 5809 5808 5807 5806 5805 5804 5803 5801 5800 5798 5797 5795 5793 5791 5789 5787 5784 5782 5780 5777 5774 5771 5768 5765 5761 5758 5755 5752 5750 5748 5746 5743 5741 5738 5736 5733
5808 5807 5806 5805 5804 5803 5801 5800 5799 5797 5796 5794 5792 5790 5788 5786 5784 5781 5778 5776 5773 5770 5767 5764 5761 5758 5754 5751 5747 5744 5741 5739 5736 5734 5731 5729 5726 5723
5804 5803 5802 5801 5800 5799 5797 5796 5794 5792 5791 5789 5786 5784 5782 5779 5777 5775 5772 5769 5766 5763 5759 5757 5753 5750 5747 5743 5739 5736 5733 5730 5728 5725 5722 5720 5717 5713
5800 5799 5798 5797 5795 5794 5793 5791 5789 5787 5785 5783 5780 5778 5775 5773 5770 5767 5765 5762 5759 5756 5752 5749 5746 5743 5740 5736 5732 5728 5725 5722 5719 5716 5713 5710 5707 5703
5795 5795 5793 5792 5791 5789 5788 5786 5784 5782 5779 5777 5774 5772 5769 5766 5763 5760 5757 5754 5751 5749 5745 5742 5738 5735 5732 5729 5724 5720 5717 5714 5710 5707 5704 5700 5697 5694
5790 5789 5788 5787 5785 5783 5782 5780 5778 5776 5773 5771 5768 5765 5762 5759 5756 5753 5750 5747 5744 5740 5737 5734 5730 5726 5723 5720 5717 5712 5708 5705 5701 5698 5694 5691 5687 5684
5785 5783 5782 5780 5779 5777 5775 5774 5771 5769 5767 5764 5761 5758 5755 5752 5749 5746 5742 5739 5735 5732 5728 5725 5721 5718 5714 5711 5708 5704 5700 5695 5692 5688 5684 5680 5677 5673
5778 5777 5775 5774 5772 5770 5768 5766 5764 5762 5759 5756 5754 5750 5747 5744 5741 5738 5734 5731 5727 5723 5719 5715 5712 5708 5705 5701 5698 5694 5691 5686 5682 5678 5674 5670 5666 5663
5771 5770 5768 5767 5765 5763 5761 5759 5756 5754 5751 5748 5745 5742 5739 5736 5733 5729 5726 5722 5719 5715 5710 5706 5702 5698 5695 5691 5687 5684 5680 5676 5672 5668 5664 5660 5655 5651
5764 5763 5761 5759 5757 5755 5753 5750 5748 5745 5742 5739 5737 5734 5731 5727 5724 5720 5717 5713 5709 5706 5701 5697 5693 5689 5685 5681 5677 5673 5669 5665 5661 5657 5653 5649 5645 5641
5756 5754 5753 5751 5749 5747 5745 5742 5739 5737 5734 5731 5728 5725 5721 5718 5715 5711 5707 5704 5700 5696 5691 5687 5683 5679 5676 5671 5667 5663 5658 5654 5650 5646 5642 5638 5634 5630
5748 5746 5744 5742 5740 5738 5735 5733 5730 5727 5724 5721 5718 5715 5712 5709 5705 5701 5697 5693 5689 5685 5681 5677 5673 5669 5665 5662 5658 5652 5648 5644 5639 5635 5631 5627 5623 5620
5738 5737 5735 5732 5730 5728 5726 5723 5721 5718 5715 5712 5709 5705 5702 5698 5695 5691 5687 5683 5679 5675 5671 5667 5662 5658 5654 5651 5647 5643 5638 5633 5629 5625 5620 5616 5612 5608
5728 5726 5724 5722 5720 5718 5716 5713 5710 5708 5705 5701 5698 5695 5691 5688 5684 5680 5676 5672 5668 5664 5660 5656 5651 5647 5643 5640 5636 5632 5628 5623 5619 5615 5610 5606 5602 5598
5718 5716 5714 5711 5709 5707 5705 5702 5700 5697 5694 5691 5687 5684 5680 5676 5673 5668 5665 5661 5657 5653 5649 5645 5641 5636 5633 5629 5625 5621 5617 5613 5608 5604 5599 5595 5591 5587
5706 5705 5703 5700 5698 5696 5693 5691 5688 5686 5683 5679 5676 5673 5669 5665 5661 5657 5653 5649 5646 5642 5638 5634 5630 5626 5622 5618 5614 5610 5606 5602 5598 5594 5589 5585 5581 5577